Simultaneous Nadir Overpasses (SNOs) Predictions

Prediction of SNOs between NOAA-20 and AQUA Satellite Orbit:

Table of predicted SNOs for the next 14.0 days since TLE Epoch: 5/8/2021
Index Date (NOAA-20) Time (NOAA-20) Lat,Lon (NOAA-20) SZA (NOAA-20 ) Date (AQUA) Time (AQUA) Lat,Lon (AQUA) SZA (AQUA ) Distance(km) Time Diff (sec)
1 05/10/2021 05:56:30 -75.92, 149.53 100.17 05/10/2021 05:56:48 -75.92, 149.54 100.18 0.23 18
2 05/10/2021 06:46:48 77.09, -38.78 78.36 05/10/2021 06:45:49 77.08, -38.89 78.44 2.98 59
3 05/12/2021 21:22:58 75.08, 95.39 80.18 05/12/2021 21:24:06 75.08, 95.42 80.11 0.89 68
4 05/12/2021 22:13:14 -76.47, -92.77 101.51 05/12/2021 22:13:06 -76.46, -92.85 101.49 2.27 8
5 05/15/2021 13:39:39 75.74,-146.82 78.76 05/15/2021 13:40:21 75.74,-146.88 78.75 1.87 42
6 05/15/2021 14:30:06 -76.61, 23.52 102.32 05/15/2021 14:29:31 -76.61, 23.54 102.29 0.64 35
7 05/18/2021 05:56:31 75.93, -30.44 77.95 05/18/2021 05:56:46 75.93, -30.41 77.93 0.73 15
8 05/18/2021 06:46:51 -77.09, 141.22 103.52 05/18/2021 06:45:50 -77.08, 141.12 103.45 2.91 61
9 05/20/2021 21:22:58 -75.24, -84.17 101.76 05/20/2021 21:24:04 -75.24, -84.18 101.81 0.08 66



Historial Predications of SNOs between NOAA-20 and AQUA
